User: anonymous   Login
Location: Caltech
(34.1382°N, 118.1253°W)
Time: 01:50:57
(UTC-08:00)
Language:

Cosmos 1833 - Orbit

View from above orbital plane
View from above orbital plane
View from above satellite
View from above satellite

Ground track
Ground track

The orbit data is extracted from the following two-line orbital elements,

1 17589U 87027A   18049.57993972 -.00000285 +00000-0 -12644-3 0  9994
2 17589 070.9223 027.0247 0032641 291.7850 067.9799 14.12900526594875
Epoch (UTC): 18 February 2018 13:55:06
Eccentricity: 0.0032641
inclination: 70.9223°
perigee height: 826 km
apogee height: 873 km
right ascension of ascending node: 27.0247°
argument of perigee: 291.7850°
revolutions per day: 14.12900526
mean anomaly at epoch: 67.9799°
orbit number at epoch: 59487

The dashed part of the orbit path shows where the satellite is in the earth's shadow,  

DLR